This demonstration page uses our WeatherBlox Daily Observations layout. Learn more.

Left ArrowRight Arrow

34.74481, -87.66753

Hourly Observations for May 4, 2022

Temp ( °F °C ) Dew Point ( °F °C ) Humidity (%) Winds ( mph kmh ) Pressure ( in mb ) Visibility ( mi km ) Precip ( " mm )
12:56 am 00:56 Mostly Cloudy 65 18.3 64 17.8 97 97 Calm 30.01 1016 7 11 0.00 0.00
1:56 am 01:56 Mostly Cloudy 65 18.3 64 17.8 97 97 Calm 29.99 1016 10 16 0.00 0.00
2:56 am 02:56 Partly Cloudy 63 17.2 62 16.7 97 97 Calm 30.01 1016 7 11 0.00 0.00
3:56 am 03:56 Cloudy 63 17.2 62 16.7 97 97 Calm 30.01 1016 10 16 0.00 0.00
4:29 am 04:29 Clear with Mist and Fog 63 17 61 16 94 94 Calm 30.05 1017 2 2 0.00 0.00
4:41 am 04:41 Clear with Mist and Fog 63 17 61 16 94 94 Calm 30.05 1017 4 6 0.00 0.00
4:56 am 04:56 Clear 62 16.7 61 16.1 96 96 Calm 30.02 1017 7 11 0.00 0.00
5:56 am 05:56 Mostly Clear with Mist and Fog 61 16.1 60 15.6 97 97 Calm 30.03 1017 2 2 0.00 0.00
6:07 am 06:07 Partly Cloudy with Fog 61 16 61 16 100 100 Calm 30.06 1018 0 0 0.00 0.00
6:11 am 06:11 Partly Cloudy with Fog 61 16 61 16 100 100 Calm 30.06 1018 1 1 0.00 0.00
6:18 am 06:18 Mostly Cloudy with Mist and Fog 61 16 61 16 100 100 Calm 30.06 1018 1 2 0.00 0.00
6:21 am 06:21 Mostly Cloudy with Mist and Fog 61 16 61 16 100 100 Calm 30.06 1018 1 1 0.00 0.00
6:31 am 06:31 Partly Cloudy with Mist and Fog 61 16 61 16 100 100 N 3 6 30.07 1018 2 3 0.00 0.00
6:43 am 06:43 Sunny with Mist and Fog 61 16 61 16 100 100 Calm 30.07 1018 5 8 0.00 0.00
6:56 am 06:56 Sunny 62 16.7 62 16.7 100 100 Calm 30.04 1017 8 13 0.00 0.00
7:56 am 07:56 Sunny 68 20 64 17.8 87 87 Calm 30.05 1018 10 16 0.00 0.00
8:56 am 08:56 Sunny 72 22.2 65 18.3 79 79 Calm 30.06 1018 10 16 0.00 0.00
9:56 am 09:56 Sunny 76 24.4 65 18.3 69 69 Calm 30.06 1018 10 16 0.00 0.00
10:56 am 10:56 Mostly Sunny 78 25.6 66 18.9 67 67 WSW 5 7 30.06 1018 10 16 0.00 0.00
11:29 am 11:29 Mostly Cloudy 79 26 66 19 65 65 Calm 30.07 1018 10 16 0.00 0.00
11:52 am 11:52 Mostly Cloudy 79 26 66 19 65 65 VRB 5 7 30.07 1018 10 16 0.00 0.00
11:56 am 11:56 Mostly Cloudy 79 26.1 66 18.9 65 65 Calm 30.06 1018 10 16 0.00 0.00
12:56 pm 12:56 Sunny 81 27.2 67 19.4 62 62 VRB 5 7 30.06 1018 10 16 0.00 0.00
1:56 pm 13:56 Mostly Cloudy 83 28.3 67 19.4 59 59 VRB 5 7 30.05 1018 10 16 0.00 0.00
2:56 pm 14:56 Partly Cloudy 82 27.8 67 19.4 60 60 VRB 6 9 30.03 1017 10 16 0.00 0.00
3:56 pm 15:56 Partly Cloudy 82 27.8 67 19.4 60 60 NW 6 9 30.01 1016 10 16 0.00 0.00
4:56 pm 16:56 Mostly Cloudy 80 26.7 68 20 67 67 NNW 7 11 30.01 1016 10 16 0.00 0.00
5:56 pm 17:56 Mostly Sunny 78 25.6 68 20 71 71 N 5 7 30.02 1017 10 16 0.00 0.00
6:56 pm 18:56 Sunny 75 23.9 68 20 79 79 VRB 5 7 30.02 1017 10 16 0.00 0.00
7:56 pm 19:56 Clear 72 22.2 67 19.4 84 84 NNE 3 6 30.05 1018 10 16 0.00 0.00
8:56 pm 20:56 Clear 70 21.1 66 18.9 87 87 NE 5 7 30.06 1018 10 16 0.00 0.00
9:56 pm 21:56 Clear 69 20.6 65 18.3 87 87 NE 5 7 30.06 1018 9 14 0.00 0.00
10:56 pm 22:56 Clear 67 19.4 64 17.8 91 91 Calm 30.04 1017 10 16 0.00 0.00
11:56 pm 23:56 Clear 66 18.9 63 17.2 90 90 Calm 30.04 1017 10 16 0.00 0.00

Powered by AerisWeather